KLM663 LIPE-LMML

Flight info

Callsign KLM663
Flight time 1h 21m
Altitude 35000
Route PELEG DCT BAGNO DCT GAVRA DCT VERUN DCT OKBIS DCT UPONO DCT GIKIN DCT RIFFI DCT MARON DCT EKOLA L12 GZO
Aircraft B738/M-SDE2E3FGHIRWXY/LB1

Departure

Time 2026-05-04 13:06
Airport Bologna Guglielmo Marconi Airport (LIPE)

Arrival

Time 2026-05-04 14:28
Airport Malta International Airport (LMML)
Time Latitude Longitude Altitude Speed Heading
2026-05-04 12:47 44.53071 11.29320 127 ft 0 kts 206°
2026-05-04 12:56 44.53078 11.29325 127 ft 4 kts 212°
2026-05-04 12:56 44.53097 11.29349 127 ft 4 kts 243°
2026-05-04 12:56 44.53104 11.29384 126 ft 4 kts 272°
2026-05-04 12:56 44.53099 11.29415 127 ft 1 kts 296°
2026-05-04 12:59 44.53101 11.29410 127 ft 2 kts 296°
2026-05-04 12:59 44.53113 11.29376 123 ft 6 kts 296°
2026-05-04 13:00 44.53139 11.29304 127 ft 10 kts 297°
2026-05-04 13:00 44.53176 11.29203 124 ft 12 kts 297°
2026-05-04 13:00 44.53216 11.29091 127 ft 12 kts 296°
2026-05-04 13:00 44.53257 11.28975 124 ft 12 kts 296°
2026-05-04 13:01 44.53294 11.28873 123 ft 11 kts 297°
2026-05-04 13:01 44.53333 11.28765 127 ft 12 kts 297°
2026-05-04 13:01 44.53371 11.28660 126 ft 9 kts 295°
2026-05-04 13:01 44.53404 11.28615 127 ft 6 kts 351°
2026-05-04 13:02 44.53445 11.28590 127 ft 7 kts 314°
2026-05-04 13:02 44.53474 11.28518 125 ft 10 kts 296°
2026-05-04 13:02 44.53513 11.28410 127 ft 14 kts 296°
2026-05-04 13:02 44.53556 11.28288 127 ft 15 kts 296°
2026-05-04 13:03 44.53607 11.28149 125 ft 17 kts 297°
2026-05-04 13:03 44.53664 11.27990 126 ft 18 kts 297°
2026-05-04 13:03 44.53715 11.27849 125 ft 15 kts 297°
2026-05-04 13:03 44.53761 11.27720 123 ft 16 kts 296°
2026-05-04 13:04 44.53811 11.27580 123 ft 16 kts 297°
2026-05-04 13:04 44.53861 11.27444 124 ft 15 kts 297°
2026-05-04 13:04 44.53926 11.27320 123 ft 17 kts 323°
2026-05-04 13:04 44.54011 11.27241 127 ft 14 kts 327°
2026-05-04 13:05 44.54084 11.27234 123 ft 9 kts 34°
2026-05-04 13:05 44.54102 11.27299 124 ft 8 kts 95°
2026-05-04 13:05 44.54063 11.27426 123 ft 30 kts 117°
2026-05-04 13:05 44.53889 11.27912 125 ft 81 kts 117°
2026-05-04 13:06 44.53566 11.28805 127 ft 126 kts 117°
2026-05-04 13:06 44.53109 11.30068 231 ft 159 kts 117°
2026-05-04 13:06 44.52567 11.31460 657 ft 168 kts 122°
2026-05-04 13:06 44.51718 11.32672 1163 ft 182 kts 148°
2026-05-04 13:07 44.50570 11.33378 2023 ft 171 kts 163°
2026-05-04 13:07 44.49431 11.33856 2731 ft 178 kts 163°
2026-05-04 13:07 44.48235 11.34477 3206 ft 194 kts 155°
2026-05-04 13:07 44.46966 11.35363 3732 ft 210 kts 156°
2026-05-04 13:08 44.45594 11.36205 4428 ft 221 kts 159°
2026-05-04 13:08 44.44147 11.37065 5157 ft 231 kts 157°
2026-05-04 13:08 44.42664 11.38056 5869 ft 242 kts 156°
2026-05-04 13:08 44.41095 11.39151 6359 ft 261 kts 154°
2026-05-04 13:09 44.39433 11.40339 7083 ft 270 kts 155°
2026-05-04 13:09 44.37748 11.41498 7995 ft 271 kts 155°
2026-05-04 13:09 44.36046 11.42705 8702 ft 279 kts 154°
2026-05-04 13:09 44.34262 11.43956 9193 ft 294 kts 155°
2026-05-04 13:10 44.32403 11.45239 9882 ft 298 kts 155°
2026-05-04 13:10 44.30580 11.46515 10971 ft 287 kts 154°
2026-05-04 13:10 44.29999 11.46923 11304 ft 285 kts 154°
2026-05-04 13:10 44.29007 11.47618 11781 ft 284 kts 155°
2026-05-04 13:11 44.27231 11.48883 12376 ft 291 kts 152°
2026-05-04 13:11 44.25449 11.50333 12850 ft 302 kts 150°
2026-05-04 13:11 44.23607 11.51912 13148 ft 318 kts 150°
2026-05-04 13:11 44.21668 11.53520 13642 ft 326 kts 151°
2026-05-04 13:12 44.19721 11.55108 14452 ft 321 kts 151°
2026-05-04 13:12 44.17818 11.56678 15334 ft 315 kts 151°
2026-05-04 13:12 44.15919 11.58237 15869 ft 321 kts 151°
2026-05-04 13:12 44.13956 11.59840 16156 ft 333 kts 151°
2026-05-04 13:13 44.11937 11.61501 16629 ft 338 kts 151°
2026-05-04 13:13 44.09935 11.63146 17404 ft 331 kts 151°
2026-05-04 13:13 44.07969 11.64755 17913 ft 335 kts 151°
2026-05-04 13:13 44.05938 11.66420 18272 ft 342 kts 151°
2026-05-04 13:14 44.03882 11.68109 18817 ft 343 kts 151°
2026-05-04 13:14 44.01821 11.69802 19302 ft 345 kts 151°
2026-05-04 13:14 43.99734 11.71510 19711 ft 349 kts 151°
2026-05-04 13:14 43.97627 11.73234 20088 ft 353 kts 151°
2026-05-04 13:15 43.95494 11.74979 20527 ft 356 kts 151°
2026-05-04 13:15 43.93350 11.76731 20988 ft 358 kts 151°
2026-05-04 13:15 43.91218 11.78476 21366 ft 362 kts 151°
2026-05-04 13:15 43.88962 11.80050 21722 ft 364 kts 160°
2026-05-04 13:16 43.86531 11.81046 22107 ft 365 kts 169°
2026-05-04 13:16 43.84024 11.81591 22501 ft 366 kts 174°
2026-05-04 13:16 43.81480 11.81930 22832 ft 369 kts 176°
2026-05-04 13:16 43.78913 11.82254 23176 ft 372 kts 175°
2026-05-04 13:17 43.76334 11.82661 23510 ft 374 kts 173°
2026-05-04 13:17 43.73733 11.83183 23854 ft 378 kts 172°
2026-05-04 13:17 43.72009 11.83550 24081 ft 379 kts 172°
2026-05-04 13:17 43.69389 11.84087 24404 ft 382 kts 173°
2026-05-04 13:18 43.66746 11.84595 24731 ft 384 kts 173°
2026-05-04 13:18 43.63227 11.85266 25187 ft 386 kts 173°
2026-05-04 13:18 43.61427 11.85619 25427 ft 387 kts 173°
2026-05-04 13:18 43.58876 11.86130 25726 ft 389 kts 173°
2026-05-04 13:19 43.56226 11.86658 26026 ft 390 kts 173°
2026-05-04 13:19 43.53532 11.87190 26337 ft 392 kts 174°
2026-05-04 13:19 43.50823 11.87713 26622 ft 394 kts 174°
2026-05-04 13:19 43.48104 11.88241 26889 ft 396 kts 174°
2026-05-04 13:20 43.45365 11.88778 27162 ft 397 kts 174°
2026-05-04 13:20 43.42618 11.89315 27441 ft 399 kts 174°
2026-05-04 13:20 43.39870 11.89861 27692 ft 400 kts 174°
2026-05-04 13:20 43.37109 11.90407 27926 ft 402 kts 174°
2026-05-04 13:21 43.34334 11.90949 28166 ft 404 kts 174°
2026-05-04 13:21 43.31544 11.91489 28406 ft 405 kts 174°
2026-05-04 13:21 43.28774 11.92021 28654 ft 407 kts 174°
2026-05-04 13:21 43.25969 11.92560 28893 ft 408 kts 174°
2026-05-04 13:22 43.23151 11.93105 29112 ft 410 kts 174°
2026-05-04 13:22 43.20320 11.93657 29328 ft 411 kts 174°
2026-05-04 13:22 43.17478 11.94210 29544 ft 413 kts 174°
2026-05-04 13:22 43.14632 11.94764 29761 ft 414 kts 174°
2026-05-04 13:23 43.11806 11.95322 29953 ft 415 kts 174°
2026-05-04 13:23 43.08937 11.95886 30147 ft 417 kts 174°
2026-05-04 13:23 43.06061 11.96444 30345 ft 418 kts 174°
2026-05-04 13:23 43.03175 11.97001 30521 ft 419 kts 175°
2026-05-04 13:24 43.00279 11.97556 30691 ft 422 kts 175°
2026-05-04 13:24 42.97367 11.98111 30873 ft 423 kts 175°
2026-05-04 13:24 42.94433 11.98677 31057 ft 424 kts 175°
2026-05-04 13:25 42.88564 11.99799 31384 ft 427 kts 175°
2026-05-04 13:25 42.85790 12.00318 31527 ft 429 kts 175°
2026-05-04 13:25 42.82825 12.00868 31662 ft 431 kts 175°
2026-05-04 13:25 42.79849 12.01429 31797 ft 433 kts 175°
2026-05-04 13:26 42.76855 12.02004 31963 ft 434 kts 175°
2026-05-04 13:26 42.73904 12.02578 32195 ft 433 kts 175°
2026-05-04 13:26 42.70921 12.03156 32446 ft 432 kts 175°
2026-05-04 13:26 42.67945 12.03727 32651 ft 431 kts 175°
2026-05-04 13:27 42.64970 12.04290 32844 ft 432 kts 175°
2026-05-04 13:27 42.61988 12.04846 33009 ft 432 kts 175°
2026-05-04 13:27 42.59017 12.05529 33183 ft 434 kts 172°
2026-05-04 13:27 42.56063 12.06449 33341 ft 436 kts 169°
2026-05-04 13:28 42.53126 12.07510 33500 ft 437 kts 168°
2026-05-04 13:28 42.50190 12.08592 33676 ft 437 kts 169°
2026-05-04 13:28 42.47285 12.09641 33844 ft 437 kts 169°
2026-05-04 13:28 42.44345 12.10683 34011 ft 437 kts 169°
2026-05-04 13:29 42.41398 12.11726 34186 ft 437 kts 169°
2026-05-04 13:29 42.38444 12.12774 34368 ft 438 kts 170°
2026-05-04 13:29 42.35495 12.13816 34535 ft 438 kts 170°
2026-05-04 13:29 42.32540 12.14855 34606 ft 441 kts 169°
2026-05-04 13:30 42.26583 12.16956 34796 ft 443 kts 170°
2026-05-04 13:30 42.20594 12.19080 35001 ft 446 kts 170°
2026-05-04 13:31 42.17716 12.20101 35109 ft 447 kts 170°
2026-05-04 13:31 42.14701 12.21166 35150 ft 449 kts 170°
2026-05-04 13:31 42.08642 12.23306 35167 ft 457 kts 170°
2026-05-04 13:32 42.02442 12.25490 35173 ft 464 kts 170°
2026-05-04 13:32 41.96167 12.27690 35169 ft 466 kts 170°
2026-05-04 13:33 41.89972 12.29874 35170 ft 464 kts 170°
2026-05-04 13:33 41.83729 12.32072 35168 ft 463 kts 170°
2026-05-04 13:34 41.77495 12.34254 35170 ft 463 kts 170°
2026-05-04 13:34 41.71285 12.36410 35169 ft 464 kts 170°
2026-05-04 13:35 41.61890 12.39648 35169 ft 464 kts 170°
2026-05-04 13:36 41.55625 12.41789 35169 ft 465 kts 170°
2026-05-04 13:36 41.49353 12.43967 35169 ft 466 kts 170°
2026-05-04 13:37 41.43258 12.46084 35168 ft 465 kts 170°
2026-05-04 13:37 41.36985 12.48255 35169 ft 465 kts 170°
2026-05-04 13:38 41.30711 12.50422 35170 ft 466 kts 170°
2026-05-04 13:38 41.24421 12.52566 35170 ft 468 kts 170°
2026-05-04 13:39 41.18092 12.54581 35165 ft 467 kts 173°
2026-05-04 13:39 41.11732 12.56368 35169 ft 466 kts 173°
2026-05-04 13:40 41.05423 12.58149 35170 ft 467 kts 173°
2026-05-04 13:40 40.99059 12.59949 35171 ft 468 kts 173°
2026-05-04 13:41 40.92686 12.61744 35171 ft 469 kts 173°
2026-05-04 13:41 40.86292 12.63553 35169 ft 470 kts 173°
2026-05-04 13:42 40.76682 12.66281 35170 ft 471 kts 173°
2026-05-04 13:42 40.70301 12.68069 35171 ft 471 kts 173°
2026-05-04 13:43 40.63891 12.69860 35171 ft 471 kts 173°
2026-05-04 13:43 40.57462 12.71661 35171 ft 472 kts 173°
2026-05-04 13:44 40.51027 12.73465 35169 ft 472 kts 173°
2026-05-04 13:44 40.44642 12.75251 35168 ft 473 kts 173°
2026-05-04 13:45 40.38199 12.77057 35169 ft 473 kts 173°
2026-05-04 13:45 40.31750 12.78864 35172 ft 474 kts 173°
2026-05-04 13:46 40.25292 12.80672 35169 ft 474 kts 173°
2026-05-04 13:46 40.18838 12.82476 35170 ft 473 kts 173°
2026-05-04 13:47 40.12393 12.84277 35170 ft 473 kts 173°
2026-05-04 13:47 40.05944 12.86073 35169 ft 474 kts 173°
2026-05-04 13:48 39.99524 12.87851 35161 ft 475 kts 173°
2026-05-04 13:48 39.93041 12.89645 35164 ft 478 kts 174°
2026-05-04 13:49 39.86505 12.91447 35166 ft 480 kts 174°
2026-05-04 13:49 39.79965 12.93259 35170 ft 479 kts 173°
2026-05-04 13:50 39.73450 12.95064 35168 ft 478 kts 173°
2026-05-04 13:50 39.66932 12.96862 35169 ft 479 kts 173°
2026-05-04 13:51 39.60443 12.98645 35170 ft 479 kts 173°
2026-05-04 13:51 39.53912 13.00458 35169 ft 479 kts 173°
2026-05-04 13:52 39.44131 13.03169 35169 ft 478 kts 173°
2026-05-04 13:53 39.37666 13.04956 35160 ft 478 kts 173°
2026-05-04 13:53 39.31152 13.06756 35161 ft 479 kts 173°
2026-05-04 13:54 39.21339 13.09463 35162 ft 481 kts 173°
2026-05-04 13:55 39.11506 13.12168 35161 ft 481 kts 173°
2026-05-04 13:55 39.01865 13.14804 35151 ft 481 kts 173°
2026-05-04 13:56 38.95312 13.16594 35151 ft 481 kts 173°
2026-05-04 13:57 38.85459 13.19283 35150 ft 483 kts 173°
2026-05-04 13:58 38.72292 13.22870 35139 ft 483 kts 173°
2026-05-04 13:58 38.62432 13.25552 35140 ft 483 kts 173°
2026-05-04 13:59 38.55840 13.27343 35137 ft 484 kts 173°
2026-05-04 14:00 38.45983 13.30015 35139 ft 485 kts 173°
2026-05-04 14:00 38.36064 13.32685 35140 ft 486 kts 173°
2026-05-04 14:01 38.29440 13.34474 35139 ft 487 kts 173°
2026-05-04 14:02 38.19485 13.37141 35138 ft 487 kts 173°
2026-05-04 14:02 38.12904 13.38906 35141 ft 486 kts 173°
2026-05-04 14:03 38.06279 13.40682 35153 ft 486 kts 173°
2026-05-04 14:03 37.99633 13.42457 35154 ft 489 kts 173°
2026-05-04 14:04 37.90912 13.44789 35151 ft 487 kts 173°
2026-05-04 14:04 37.84263 13.46559 35150 ft 487 kts 173°
2026-05-04 14:05 37.74343 13.49183 35146 ft 488 kts 173°
2026-05-04 14:05 37.71014 13.50061 35034 ft 491 kts 173°
2026-05-04 14:06 37.67651 13.50945 34540 ft 497 kts 173°
2026-05-04 14:06 37.64270 13.51840 33995 ft 493 kts 173°
2026-05-04 14:06 37.60904 13.52727 33464 ft 495 kts 173°
2026-05-04 14:06 37.57532 13.53613 32907 ft 493 kts 173°
2026-05-04 14:07 37.54188 13.54490 32351 ft 487 kts 173°
2026-05-04 14:07 37.50882 13.55351 31786 ft 481 kts 173°
2026-05-04 14:07 37.47622 13.56196 31238 ft 476 kts 173°
2026-05-04 14:07 37.44388 13.57036 30682 ft 472 kts 173°
2026-05-04 14:08 37.41221 13.57863 30139 ft 470 kts 173°
2026-05-04 14:08 37.38030 13.58698 29584 ft 466 kts 172°
2026-05-04 14:08 37.34877 13.59522 29023 ft 460 kts 173°
2026-05-04 14:08 37.31765 13.60330 28457 ft 454 kts 173°
2026-05-04 14:09 37.25641 13.61918 27370 ft 443 kts 172°
2026-05-04 14:09 37.22632 13.62696 26821 ft 438 kts 172°
2026-05-04 14:10 37.16722 13.64217 25745 ft 429 kts 172°
2026-05-04 14:10 37.13812 13.64957 25216 ft 425 kts 172°
2026-05-04 14:10 37.10936 13.65746 24690 ft 422 kts 168°
2026-05-04 14:10 37.08134 13.66844 24194 ft 421 kts 163°
2026-05-04 14:11 37.07451 13.67160 24068 ft 420 kts 162°
2026-05-04 14:11 37.03087 13.69443 23223 ft 415 kts 159°
2026-05-04 14:11 37.00451 13.70870 22713 ft 411 kts 159°
2026-05-04 14:12 36.97831 13.72261 22205 ft 406 kts 160°
2026-05-04 14:12 36.95237 13.73627 21702 ft 402 kts 160°
2026-05-04 14:12 36.90163 13.76460 20706 ft 395 kts 158°
2026-05-04 14:13 36.87666 13.77871 20221 ft 391 kts 159°
2026-05-04 14:13 36.85210 13.79193 19732 ft 387 kts 160°
2026-05-04 14:13 36.82726 13.80481 19264 ft 383 kts 160°
2026-05-04 14:13 36.80274 13.81742 18789 ft 379 kts 160°
2026-05-04 14:14 36.77842 13.82993 18318 ft 375 kts 160°
2026-05-04 14:14 36.73038 13.85453 17395 ft 370 kts 160°
2026-05-04 14:14 36.70667 13.86667 16935 ft 367 kts 160°
2026-05-04 14:15 36.65987 13.89083 16037 ft 360 kts 159°
2026-05-04 14:15 36.61382 13.91440 15132 ft 355 kts 159°
2026-05-04 14:16 36.56847 13.93756 14279 ft 349 kts 159°
2026-05-04 14:16 36.54709 13.94845 13858 ft 346 kts 159°
2026-05-04 14:17 36.50280 13.97087 13003 ft 341 kts 159°
2026-05-04 14:17 36.48064 13.98112 12611 ft 337 kts 162°
2026-05-04 14:17 36.43637 13.99887 11782 ft 334 kts 162°
2026-05-04 14:18 36.41435 14.00811 11359 ft 332 kts 161°
2026-05-04 14:18 36.37242 14.02589 10869 ft 303 kts 162°
2026-05-04 14:19 36.33346 14.04213 10243 ft 291 kts 162°
2026-05-04 14:19 36.31445 14.05006 9884 ft 285 kts 162°
2026-05-04 14:19 36.29603 14.05780 9535 ft 282 kts 162°
2026-05-04 14:19 36.27751 14.06557 9135 ft 279 kts 162°
2026-05-04 14:20 36.25920 14.07325 8781 ft 276 kts 162°
2026-05-04 14:20 36.24111 14.08084 8463 ft 273 kts 162°
2026-05-04 14:20 36.22309 14.08834 8133 ft 272 kts 162°
2026-05-04 14:21 36.18735 14.10319 7379 ft 267 kts 162°
2026-05-04 14:21 36.16982 14.11045 7047 ft 265 kts 162°
2026-05-04 14:21 36.15237 14.11763 6706 ft 263 kts 162°
2026-05-04 14:21 36.13576 14.12691 6388 ft 262 kts 148°
2026-05-04 14:22 36.12196 14.14105 6206 ft 262 kts 135°
2026-05-04 14:22 36.10983 14.15786 6093 ft 262 kts 132°
2026-05-04 14:22 36.09757 14.17459 5923 ft 262 kts 135°
2026-05-04 14:22 36.08487 14.19072 5620 ft 261 kts 136°
2026-05-04 14:23 36.05985 14.22329 5165 ft 256 kts 134°
2026-05-04 14:23 36.04783 14.23913 4891 ft 249 kts 135°
2026-05-04 14:23 36.03585 14.25438 4596 ft 246 kts 137°
2026-05-04 14:24 36.02369 14.26919 4556 ft 246 kts 137°
2026-05-04 14:24 36.01132 14.28439 4564 ft 254 kts 137°
2026-05-04 14:24 35.99911 14.29952 4456 ft 247 kts 136°
2026-05-04 14:24 35.98700 14.31454 4053 ft 246 kts 136°
2026-05-04 14:25 35.97506 14.32932 3704 ft 246 kts 137°
2026-05-04 14:25 35.95065 14.35928 2970 ft 245 kts 137°
2026-05-04 14:25 35.93877 14.37402 2618 ft 238 kts 137°
2026-05-04 14:26 35.92726 14.38837 2306 ft 231 kts 137°
2026-05-04 14:26 35.91627 14.40225 1951 ft 221 kts 137°
2026-05-04 14:26 35.90573 14.41554 1618 ft 210 kts 136°
2026-05-04 14:26 35.89583 14.42803 1358 ft 197 kts 136°
2026-05-04 14:27 35.88646 14.43968 1120 ft 186 kts 136°
2026-05-04 14:27 35.87825 14.45067 974 ft 168 kts 132°
2026-05-04 14:27 35.87053 14.46119 651 ft 162 kts 135°
2026-05-04 14:27 35.86290 14.47076 458 ft 151 kts 135°
2026-05-04 14:28 35.85582 14.47960 298 ft 142 kts 136°
2026-05-04 14:28 35.84938 14.48750 252 ft 107 kts 135°
2026-05-04 14:28 35.84612 14.49157 252 ft 35 kts 135°
2026-05-04 14:28 35.84477 14.49362 252 ft 23 kts 114°
2026-05-04 14:29 35.84453 14.49533 252 ft 7 kts 68°
2026-05-04 14:29 35.84518 14.49563 252 ft 3 kts 337°
2026-05-04 14:30 35.84527 14.49556 252 ft 1 kts 330°
2026-05-04 14:30 35.84532 14.49552 252 ft 1 kts 327°
2026-05-04 14:30 35.84546 14.49542 252 ft 0 kts 332°
2026-05-04 14:31 35.84557 14.49537 252 ft 3 kts 346°
2026-05-04 14:31 35.84625 14.49563 252 ft 8 kts 11°
2026-05-04 14:32 35.84709 14.49569 251 ft 7 kts 25°
2026-05-04 14:32 35.84741 14.49576 251 ft 3 kts 358°
2026-05-04 14:32 35.84763 14.49571 251 ft 2 kts 348°
2026-05-04 14:32 35.84764 14.49571 251 ft 1 kts 349°
2026-05-04 14:33 35.84765 14.49570 251 ft 0 kts 349°
2026-05-04 14:47 35.84770 14.49565 251 ft 0 kts